Regional Weather Roundup
Issued by NWS Albany, NY

Home | Current Version | Previous Version | Text Only | Print | Product List | Glossary On
Versions: 1 2 3 4 5 6 7 8 9 10 11 12 13 14 15 16 17 18 19 20 21 22 23 24 25 26 27
000
ASUS41 KALY 311610
RWRALY

NEW YORK STATE HOURLY WEATHER ROUNDUP
NATIONAL WEATHER SERVICE ALBANY NY
1200 PM EDT TUE MAY 31 2016

NOTE: "FAIR" INDICATES FEW OR NO CLOUDS BELOW 12,000 FEET WITH NO
SIGNIFICANT WEATHER AND/OR NO OBSTRUCTIONS TO VISIBILITY.

NYZ032-033-038>043-046>054-057>066-NYZ062>081-082-084-311700-
EAST


CITY           SKY/WX    TMP DP  RH WIND       PRES   REMARKS
ALBANY         MOSUNNY   78  52  40 W15       29.95F
GLENS FALLS    SUNNY     80  47  31 VRB7G18   29.92F
POUGHKEEPSIE   SUNNY     81  54  39 NE5       29.95F
NEWBURGH       MOSUNNY   79  57  47 CALM      29.98F
MONTGOMERY     SUNNY     80  56  43 E5        29.96F
WHITE PLAINS   MOSUNNY   79  54  41 CALM      29.97F
ISLIP          CLOUDY    76  67  73 S10       29.97F
NEW YORK CITY  MOSUNNY   80  62  54 E9        29.96F
CENTRAL PARK   SUNNY     81  61  50 S5        29.99F
$$

NYZ005>009-017-018-044>046-055-056-311700-
CENTRAL


CITY           SKY/WX    TMP DP  RH WIND       PRES   REMARKS
FULTON         SUNNY     80  50  34 W9G17     29.99R
SYRACUSE       MOSUNNY   77  50  38 W12G23    29.98S
ROME           SUNNY     76  54  46 W10G18    29.98S
ELMIRA         MOSUNNY   81  55  40 W8        29.99S
BINGHAMTON     MOSUNNY   73  54  51 VRB5G16   30.02S
MONTICELLO     SUNNY     77  54  44 NW13      30.02S
$$

NYZ026>034-041>043-087-311700-
NORTH


CITY           SKY/WX    TMP DP  RH WIND       PRES   REMARKS
WATERTOWN      SUNNY     73  53  49 W10       29.96S
FORT DRUM      NOT AVBL
MASSENA        SUNNY     76  50  40 W17G26    29.90S
SARANAC LAKE   MOSUNNY   71  44  37 W12G23    29.93S
PLATTSBURGH    SUNNY     78  49  35 VRB7G17   29.87F
$$

NYZ001>004-010>016-019>021-085-311700-
WEST


CITY           SKY/WX    TMP DP  RH WIND       PRES   REMARKS
NIAGARA FALLS  MOSUNNY   80  48  32 NW9       30.01R
BUFFALO        PTSUNNY   79  45  29 NW12G21   30.02R
DUNKIRK        SUNNY     77  44  30 N5        30.03S
WELLSVILLE     MOSUNNY   76  54  46 NW8       30.07R
ROCHESTER      MOSUNNY   77  52  41 NW7       30.00S
PENN YAN       SUNNY     76  53  44 NW6       30.02S
$$

             KEY
       WCI = WIND CHILL INDEX
       VSB = VISIBILITY
       HX  = HEAT INDEX
$$




USA.gov is the U.S. government's official web portal to all federal, state and local government web resources and services.